Tracking 22124 objects as of 25-Jan-2021
HD Live streaming from Space Station
objects crossing your sky now

STARLINK-1878

Track STARLINK-1878 now!
10-day predictions
STARLINK-1878 is classified as:


NORAD ID: 47163
Int'l Code: 2020-088AT
Perigee: 553.4 km
Apogee: 555.5 km
Inclination: 53.1 °
Period: 95.6 minutes
Semi major axis: 6925 km
RCS: Unknown
Launch date: November 25, 2020
Source: United States (US)
Launch site: AIR FORCE EASTERN TEST RANGE (AFETR)
aabbcc
Your satellite tracking list
Your tracking list is empty




NASA's NSSDC Master Catalog

Two Line Element Set (TLE):
1 47163U 20088AT  21025.58335648  .00030481  00000-0  20578-2 0  9991
2 47163  53.0561  62.3598 0001496  51.3044 225.2841 15.06373532 10238
Source of the keplerian elements: AFSPC